Regional Weather Roundup
Issued by NWS

Home | Current Version | Previous Version | Graphics & Text | Print | Product List | Glossary On
Versions: 1 2 3 4 5 6 7 8 9 10 11 12 13 14 15 16 17 18 19 20 21 22 23 24 25 26 27 28 29 30 31 32 33 34 35 36 37 38 39 40 41 42 43 44 45 46 47 48 49 50
000
ASUS43 KFSD 302002
RWRSD

WEATHER ROUNDUP FOR SOUTH DAKOTA
NATIONAL WEATHER SERVICE SIOUX FALLS SD
300 PM CDT MON MAY 30 2016

NOTE: "FAIR" INDICATES FEW OR NO CLOUDS BELOW 12,000 FEET WITH NO
SIGNIFICANT WEATHER AND/OR OBSTRUCTIONS TO VISIBILITY.


SDZ001>005-009-010-012>017-302100-
NORTHWEST AND NORTH CENTRAL SOUTH DAKOTA

CITY           SKY/WX    TMP DP  RH WIND       PRES   REMARKS
BUFFALO          N/A     61  53  75 NW20      29.85R
FAITH            N/A     78  54  43 S12       29.77F
MOBRIDGE       TSTM      68  62  81 NW6       29.82F
$$

SDZ012>016-024>037-041>051-057-063-072>074-302100-
SOUTHWEST AND SOUTH CENTRAL SOUTH DAKOTA

CITY           SKY/WX    TMP DP  RH WIND       PRES   REMARKS
RAPID CTY ARPT PTSUNNY   75  51  43 N30G39    29.83R
PIERRE         MOSUNNY   81  58  45 S16G25    29.77F
CUSTER         CLOUDY    67  41  38 W13G20    29.95F
ELLSWORTH AFB  MOSUNNY   75  54  47 NW32G44   29.83S
PHILIP         CLOUDY    82  56  40 S13       29.76F
PINE RIDGE     MOSUNNY   82  44  26 W18G24    29.85F
WINNER         FAIR      82  55  39 S18G25    29.82F
$$

SDZ004>011-016>023-039-040-302100-
NORTHEAST SOUTH DAKOTA

CITY           SKY/WX    TMP DP  RH WIND       PRES   REMARKS
ABERDEEN       PTSUNNY   83  53  35 S16G26    29.83F
WATERTOWN      MOSUNNY   79  54  41 S15G22    29.89F
BROOKINGS      MOSUNNY   79  59  50 S14G21    29.89F
SISSETON         N/A     83  52  34 SW12      29.84F
$$

SDZ017-020-022-023-036>040-048>070-302100-
SOUTHEAST SOUTH DAKOTA

CITY           SKY/WX    TMP DP  RH WIND       PRES   REMARKS
SIOUX FALLS    CLOUDY    79  60  52 S12       29.89F
HURON          MOSUNNY   79  61  53 S18G25    29.83F
MITCHELL       MOSUNNY   80  61  52 S15       29.85F
YANKTON        CLOUDY    81  57  44 S10       29.86F
$$

ABBREVIATIONS USED IN REMARKS
   TC - TEMPERATURE IN CELSIUS
  WCI - WIND CHILL INDEX
   HX - HEAT INDEX
  VSB - VISIBILITY





USA.gov is the U.S. government's official web portal to all federal, state and local government web resources and services.